Location: Sunny Point
(33.0946°N, 85.0574°W)
Time: 19:32:44
(UTC+00:00)

Envisat - Visible Passes

Search period start: 21 May 2024 00:00
Search period end: 31 May 2024 00:00
Orbit: 762 x 764 km, 98.3° (Epoch: 21 May)

Date Brightness Start Highest point End Pass type
(mag) Time Alt. Az. Time Alt. Az. Time Alt. Az.
21 May 5.1 07:55:21 10° NE 07:59:00 20° E 08:01:47 13° SE visible
21 May 3.7 09:33:23 10° N 09:38:02 37° WNW 09:41:56 14° SW visible
22 May 2.9 08:55:43 10° NNE 09:00:48 89° E 09:04:11 22° SSW visible
23 May 4.2 08:18:46 10° NNE 08:23:24 35° E 08:26:24 19° SSE visible
23 May 4.4 09:58:19 10° NNW 10:02:05 21° WNW 10:05:51 10° WSW visible
24 May 5.4 07:43:06 10° ENE 07:45:49 14° E 07:48:31 10° SE visible
24 May 3.3 09:20:06 10° N 09:25:00 51° WNW 09:28:48 16° SW visible
25 May 3.3 08:42:40 10° NNE 08:47:43 65° ESE 08:51:01 22° S visible
26 May 4.7 08:06:02 10° NE 08:10:15 26° E 08:13:15 16° SE visible
26 May 4.0 09:44:48 10° NNW 09:49:06 29° WNW 09:53:24 10° SW visible
27 May 3.0 09:06:54 10° N 09:11:57 70° WNW 09:15:38 19° SSW visible
28 May 3.8 08:29:42 10° NNE 08:34:36 47° E 08:37:50 20° SSE visible
29 May 5.1 07:53:28 10° NE 07:57:04 19° E 08:00:03 12° SE visible
29 May 3.6 09:31:25 10° N 09:36:05 38° WNW 09:40:13 13° SW visible
30 May 3.0 08:53:46 10° NNE 08:58:52 86° ESE 09:02:25 20° SSW visible
